Hazard, Kentucky, United States (41701)
Lat: 37.25N, Lon: 83.19W
Wx Zone: KYZ115
Local Info
Past Weather Observations for Tuesday, December 16, 2014

NOTE: This archive is for the closest National Weather Service station to Hazard. Information may differ from the station used for current weather conditions.

Click here for Long-term Archive

Time Weather Temperature Dewpoint Humidity Pressure Winds Precip Visibility
23:53
Overcast
41°F / 5°C 36°F / 2°C 81% 30.12 in
(1020 mb)
SSW 6.9 mph
(SSW 11 kph)
0.00 in
(0.00 mm)
10SM
22:53
Overcast
43°F / 6°C 36°F / 2°C 76% 30.12 in
(1020 mb)
Variable 3.5 mph
(Variable 6 kph)
- 10SM
21:53
Overcast
43°F / 6°C 36°F / 2°C 76% 30.12 in
(1020 mb)
SSW 10.4 mph
(SSW 17 kph)
- 10SM
20:53
Overcast
43°F / 6°C 36°F / 2°C 76% 30.09 in
(1019 mb)
Variable 6.9 mph
(Variable 11 kph)
- 10SM
19:53
Overcast
43°F / 6°C 36°F / 2°C 76% 30.09 in
(1019 mb)
SSW 6.9 mph
(SSW 11 kph)
- 10SM
18:53
Overcast
43°F / 6°C 36°F / 2°C 76% 30.06 in
(1018 mb)
Variable 4.6 mph
(Variable 7 kph)
- 10SM
18:43
Overcast
43°F / 6°C 36°F / 2°C 76% 30.06 in
(1018 mb)
Variable 5.8 mph
(Variable 9 kph)
- 10SM
18:32
Overcast
45°F / 7°C 37°F / 3°C 76% 30.06 in
(1018 mb)
SSW 4.6 mph
(SSW 7 kph)
- 10SM
18:22
Overcast
45°F / 7°C 37°F / 3°C 76% 30.06 in
(1018 mb)
SSW 5.8 mph
(SSW 9 kph)
- 10SM
17:53
Overcast
45°F / 7°C 37°F / 3°C 76% 30.04 in
(1017 mb)
SW 9.2 mph
(SW 15 kph)
0.00 in
(0.00 mm)
10SM
16:53
Overcast
Light Rain
45°F / 7°C 37°F / 3°C 76% 30.01 in
(1016 mb)
SSW 10.4 mph
(SSW 17 kph)
0.00 in
(0.00 mm)
10SM
15:53
Overcast
46°F / 8°C 36°F / 2°C 66% 29.98 in
(1015 mb)
Variable 6.9 mph
(Variable 11 kph)
- 10SM
14:53
Overcast
46°F / 8°C 37°F / 3°C 71% 29.95 in
(1014 mb)
SSW 8.1 mph
(SSW 13 kph)
- 10SM
14:04
Overcast
48°F / 9°C 37°F / 3°C 66% 29.92 in
(1013 mb)
SW 9.2 mph
(SW 15 kph)
- 10SM
13:53
Overcast
48°F / 9°C 37°F / 3°C 66% 29.92 in
(1013 mb)
SSW 8.1 mph
(SSW 13 kph)
- 10SM
13:15
Overcast
50°F / 10°C 37°F / 3°C 62% 29.89 in
(1012 mb)
Variable 6.9 mph
(Variable 11 kph)
- 10SM
13:03
Overcast
50°F / 10°C 37°F / 3°C 62% 29.89 in
(1012 mb)
SSW 8.1 mph
(SSW 13 kph)
- 10SM
12:53
Overcast
50°F / 10°C 37°F / 3°C 62% 29.89 in
(1012 mb)
SW 11.5 mph
(SW 19 kph)
- 10SM
11:53
Overcast
52°F / 11°C 37°F / 3°C 58% 29.89 in
(1012 mb)
SW 9.2 mph
(SW 15 kph)
- 10SM
11:33
Overcast
50°F / 10°C 39°F / 4°C 67% 29.89 in
(1012 mb)
Variable 6.9 mph
(Variable 11 kph)
- 10SM
10:53
Overcast
50°F / 10°C 41°F / 5°C 71% 29.89 in
(1012 mb)
SSW 8.1 mph
(SSW 13 kph)
- 10SM
09:53
Overcast
52°F / 11°C 45°F / 7°C 77% 29.86 in
(1011 mb)
SSW 9.2 mph
(SSW 15 kph)
- 10SM
09:25
Overcast
52°F / 11°C 45°F / 7°C 77% 29.86 in
(1011 mb)
SW 8.1 mph
(SW 13 kph)
- 10SM
08:53
Overcast
52°F / 11°C 45°F / 7°C 77% 29.83 in
(1010 mb)
Variable 4.6 mph
(Variable 7 kph)
- 10SM
07:53
Mostly Cloudy
50°F / 10°C 45°F / 7°C 82% 29.83 in
(1010 mb)
Variable 3.5 mph
(Variable 6 kph)
- 10SM
06:53
Clear
48°F / 9°C 45°F / 7°C 87% 29.8 in
(1009 mb)
Variable 5.8 mph
(Variable 9 kph)
- 10SM
05:53
Mostly Cloudy
48°F / 9°C 45°F / 7°C 87% 29.8 in
(1009 mb)
S 4.6 mph
(S 7 kph)
- 10SM
04:53
Overcast
48°F / 9°C 46°F / 8°C 94% 29.83 in
(1010 mb)
Variable 5.8 mph
(Variable 9 kph)
0.01 in
(0.25 mm)
10SM
03:53
Overcast
Light Rain
50°F / 10°C 46°F / 8°C 88% 29.83 in
(1010 mb)
Variable 3.5 mph
(Variable 6 kph)
0.00 in
(0.00 mm)
9SM
02:53
Overcast
48°F / 9°C 46°F / 8°C 94% 29.83 in
(1010 mb)
Calm 0.01 in
(0.25 mm)
10SM
01:53
Overcast
48°F / 9°C 43°F / 6°C 82% 29.86 in
(1011 mb)
SSE 8.1 mph
(SSE 13 kph)
0.03 in
(0.76 mm)
10SM
01:27
Overcast
Light Rain
48°F / 9°C 43°F / 6°C 82% 29.86 in
(1011 mb)
Variable 6.9 mph
(Variable 11 kph)
0.03 in
(0.76 mm)
9SM
01:04
Overcast
Rain
52°F / 11°C 39°F / 4°C 62% 29.89 in
(1012 mb)
Variable 4.6 mph
(Variable 7 kph)
0.01 in
(0.25 mm)
6SM
00:53
Overcast
52°F / 11°C 39°F / 4°C 62% 29.86 in
(1011 mb)
S 6.9 mph
(S 11 kph)
- 10SM
00:45
Overcast
52°F / 11°C 39°F / 4°C 62% 29.86 in
(1011 mb)
Variable 6.9 mph
(Variable 11 kph)
- 10SM
00:11
Overcast
50°F / 10°C 39°F / 4°C 67% 29.86 in
(1011 mb)
SW 5.8 mph
(SW 9 kph)
- 10SM
Time Weather Temperature Dewpoint Humidity Pressure Winds Precip Visibility


Weather for websites

WeatherForYou.com, LLC is not responsible for any damages or problems caused by this service. Current weather conditions are obtained from the closest station including government and personal stations which may have varying degrees of accuracy. Weather forecasts are derived from the NOAA NDFD. Like all things, this site belongs to Jesus Christ... He just trusts me to maintain it. If you have any questions or comments email webmaster@weatherforyou.com

Copyright © 2014, WeatherForYou.com LLC. All rights reserved.